This is the latest recevied weather packets stored in our database for station/object BM1CCR-13. If no packets are shown the sender has not sent any weather packets the latest 10 day(s).
| Time | Temp. | Humidity | Pressure | Rain* | Wind** | Luminosity | Snow |
|---|---|---|---|---|---|---|---|
| 1777362459 | 28.89° C | 66% | 1000.2 hPa | 0 mm | - | - | - |
| 1777362176 | 28.89° C | 65% | 1000.2 hPa | 0 mm | - | - | - |
| 1777362159 | 28.89° C | 65% | 1000.4 hPa | 0 mm | - | - | - |
| 1777361859 | 28.89° C | 66% | 1000.3 hPa | 0 mm | - | - | - |
| 1777361559 | 28.89° C | 65% | 1000.4 hPa | 0 mm | - | - | - |
| 1777361259 | 28.89° C | 63% | 1000.4 hPa | 0 mm | - | - | - |
| 1777360959 | 28.89° C | 62% | 1000.4 hPa | 0 mm | - | - | - |
| 1777360675 | 30° C | 60% | 1000.4 hPa | 0 mm | - | - | - |
| 1777360658 | 30° C | 60% | 1000.3 hPa | 0 mm | - | - | - |
| 1777360375 | 28.89° C | 63% | 1000.5 hPa | 0 mm | - | - | - |
| 1777360359 | 28.89° C | 63% | 1000.4 hPa | 0 mm | - | - | - |
| 1777360059 | 28.89° C | 63% | 1000.5 hPa | 0 mm | - | - | - |
| 1777359775 | 30° C | 61% | 1000.5 hPa | 0 mm | - | - | - |
| 1777359759 | 30° C | 61% | 1000.4 hPa | 0 mm | - | - | - |
| 1777359459 | 30° C | 59% | 1000.3 hPa | 0 mm | - | - | - |
| 1777359159 | 28.89° C | 62% | 1000.5 hPa | 0 mm | - | - | - |
| 1777358859 | 30° C | 59% | 1000.5 hPa | 0 mm | - | - | - |
| 1777358575 | 30.56° C | 58% | 1000.6 hPa | 0 mm | - | - | - |
| 1777358559 | 30.56° C | 58% | 1000.5 hPa | 0 mm | - | - | - |
| 1777358259 | 30.56° C | 57% | 1000.6 hPa | 0 mm | - | - | - |
| 1777357974 | 30.56° C | 56% | 1000.8 hPa | 0 mm | - | - | - |
| 1777357959 | 30.56° C | 56% | 1000.6 hPa | 0 mm | - | - | - |
| 1777357659 | 30.56° C | 59% | 1000.7 hPa | 0 mm | - | - | - |
| 1777357374 | 30° C | 60% | 1000.7 hPa | 0 mm | - | - | - |
| 1777357359 | 30° C | 59% | 1000.7 hPa | 0 mm | - | - | - |
* Rain latest hour (hover to see other rain measurements)
** Current wind speed in m/s (hover to see current wind gust speed)